Bishop, CA

4:38 PM PDT on September 29, 2016 (GMT -0700)
Bishop

Weather History for KBIH - February, 2013

Change the Weather History Date:

Sunday, February 24, 2013

  Actual Average Record
Temperature  
Mean Temperature 40 °F 44 °F  
Max Temperature 55 °F 60 °F 76 °F (1986)
Min Temperature 25 °F 28 °F 10 °F (1944)
Degree Days  
Heating Degree Days 25 21  
Month to date heating degree days 568 557  
Since 1 July heating degree days 3110 3126  
Cooling Degree Days 0 0  
Month to date cooling degree days 0 0  
Year to date cooling degree days 0 0  
Moisture  
Dew Point 2 °F    
Average Humidity 25    
Maximum Humidity 42    
Minimum Humidity 7    
Precipitation  
Precipitation 0.00 in 0.03 in 3.50 in (1969)
Month to date precipitation 0.00 0.73  
Year to date precipitation T 1.78  
Snow  
Snow 0.00 in 0.10 in 8.50 in (1969)
Month to date snowfall 0.0 0.7  
Since 1 July snowfall 2.8 7.4  
Snow Depth 0.00 in    
Sea Level Pressure  
Sea Level Pressure 30.19 in    
Wind  
Wind Speed 13 mph (NNW)    
Max Wind Speed 23 mph    
Max Gust Speed 30 mph    
Visibility 10 miles    
Events      
T = Trace of Precipitation, MM = Missing Value Source: NWS Daily Summary

Daily Weather History Graph

Daily Weather History Graph

Search for Another Location

Airport or City:

Trip Planner

Search our weather history database for the weather conditions in past years. The results will help you decide how hot, cold, wet, or windy it might be!

Date:

Astronomy

Feb. 24, 2013 Rise Set
Actual Time 6:30 AM PST 5:42 PM PST
Civil Twilight 6:04 AM PST 6:09 PM PST
Nautical Twilight 5:34 AM PST 6:39 PM PST
Astronomical Twilight 5:04 AM PST 7:09 PM PST
Moon 4:58 PM PST (2/24) 5:30 AM PST (2/24)
Length of Visible Light 12h 04m
Length of Day
11h 11m
Waxing Gibbous, 99% of the Moon is Illuminated
Feb 24
Waxing Gibbous
Feb 25
Full
Mar 4
Last Quarter
Mar 11
New
Mar 19
First Quarter

Hourly Weather History & Observations

Time (PST) Temp. Windchill Dew Point Humidity Pressure Visibility Wind Dir Wind Speed Gust Speed Precip Events Conditions
12:56 AM 28.0 °F 19.3 °F 9.0 °F 45% 30.19 in 10.0 mi NW 9.2 mph - N/A   Clear
1:56 AM 27.0 °F 18.7 °F 7.0 °F 43% 30.19 in 10.0 mi NW 8.1 mph - N/A   Clear
2:56 AM 28.0 °F 18.1 °F 7.0 °F 41% 30.18 in 10.0 mi WNW 11.5 mph 17.3 mph N/A   Clear
3:56 AM 26.1 °F 15.6 °F 7.0 °F 44% 30.20 in 10.0 mi NW 11.5 mph - N/A   Clear
4:56 AM 27.0 °F 17.3 °F 7.0 °F 43% 30.21 in 10.0 mi WNW 10.4 mph - N/A   Clear
5:56 AM 27.0 °F 16.1 °F 7.0 °F 43% 30.24 in 10.0 mi NNW 12.7 mph - N/A   Clear
6:56 AM 28.0 °F 17.0 °F 7.0 °F 41% 30.26 in 10.0 mi NNW 13.8 mph - N/A   Clear
7:56 AM 34.0 °F 23.0 °F 7.0 °F 32% 30.26 in 10.0 mi North 18.4 mph 27.6 mph N/A   Clear
8:56 AM 37.9 °F 27.9 °F 7.0 °F 28% 30.26 in 10.0 mi North 19.6 mph 25.3 mph N/A   Clear
9:56 AM 41.0 °F 31.6 °F 5.0 °F 23% 30.25 in 10.0 mi North 20.7 mph 29.9 mph N/A   Clear
10:56 AM 45.0 °F 38.2 °F -0.0 °F 15% 30.23 in 10.0 mi North 15.0 mph 27.6 mph N/A   Clear
11:56 AM 48.0 °F - -2.0 °F 13% 30.20 in 10.0 mi North 15.0 mph 23.0 mph N/A   Clear
12:56 PM 51.1 °F - -5.1 °F 10% 30.16 in 10.0 mi North 15.0 mph 23.0 mph N/A   Clear
1:56 PM 55.0 °F - -7.1 °F 8% 30.12 in 10.0 mi North 13.8 mph 21.9 mph N/A   Clear
2:56 PM 55.0 °F - -9.0 °F 7% 30.12 in 10.0 mi North 15.0 mph 24.2 mph N/A   Clear
3:56 PM 54.0 °F - -5.1 °F 9% 30.12 in 10.0 mi NNW 19.6 mph 26.5 mph N/A   Clear
4:56 PM 51.1 °F - -0.9 °F 12% 30.13 in 10.0 mi North 12.7 mph 24.2 mph N/A   Clear
5:56 PM 46.0 °F 39.6 °F -2.0 °F 14% 30.14 in 10.0 mi North 15.0 mph 21.9 mph N/A   Clear
6:56 PM 43.0 °F 35.4 °F 1.0 °F 17% 30.17 in 10.0 mi North 16.1 mph - N/A   Clear
7:56 PM 37.9 °F 32.1 °F 1.0 °F 21% 30.17 in 10.0 mi North 8.1 mph - N/A   Clear
8:56 PM 36.0 °F 29.6 °F 1.9 °F 24% 30.18 in 10.0 mi NW 8.1 mph - N/A   Clear
9:56 PM 36.0 °F 29.6 °F 1.9 °F 24% 30.19 in 10.0 mi NNW 8.1 mph - N/A   Clear
10:56 PM 33.1 °F 24.4 °F 3.0 °F 28% 30.18 in 10.0 mi NNW 11.5 mph - N/A   Clear
11:56 PM 30.0 °F 22.4 °F 3.0 °F 32% 30.18 in 10.0 mi North 8.1 mph - N/A   Clear